Onweer radar Meer informatie blitzortung!


Regen radar Meer informatie rain snow radar


Bezoek onze andere website:

Template documentation
and downloads

And another site



15 daagse weersverwachting Drammen (NO)

  • Overzicht
  • Per uur
  • 15 dagen
  • Extra
  • Vergelijk
  • Kaarten
  • Dagkaart
  • Meer »
  • Info
  • Statistieken
  • Directe link
    Temp 6h Neerslag Wind  
 05:06     21:47    Daglengte: 16:41 Vandaag
02:00
15°
 
2
08:00
15°
 
4
14:00
15°
4.4 mm
4
20:00
14°
4.1 mm
2
 05:08     21:45    Daglengte: 16:37 Morgen
02:00
12°
 
2
08:00
13°
 
3
14:00
17°
 
3
20:00
16°
 
1
 05:10     21:42    Daglengte: 16:32 Dinsdag 03 Aug
02:00
12°
4.5 mm
2
08:00
13°
 
2
14:00
16°
0.6 mm
2
20:00
17°
 
2
Locatie info
Region: Buskerud
Latitude: 59.7475°N
Longitude: 10.1840°E
11 masl
Postcode: 3018
Temp/Neerslag /Baro Onweer/Dauwpunt
    Temp Baro 1h Neerslag Dauwpunt Wind UV Bewolking  
 05:06     21:47    Daglengte: 16:41 Vandaag
01:00
15°
993.7 hPa
48%
13.8°
2
Windvlaag: 1.4 m/s
78%
02:00
15°
993.8 hPa
80%
13.5°
2
Windvlaag: -0.3 m/s
86%
03:00
14°
993.8 hPa
77%
13.3°
2
Windvlaag: -0.9 m/s
84%
04:00
14°
993.8 hPa
33%
13.0°
2
Windvlaag: -0.5 m/s
86%
05:00
14°
994.0 hPa
18%
12.9°
2
Windvlaag: -0.9 m/s
78%
06:00
14°
994.2 hPa
22%
12.8°
3
Windvlaag: -1.9 m/s
84%
07:00
14°
994.6 hPa
68%
12.7°
3
Windvlaag: -2.4 m/s
82%
08:00
15°
995.0 hPa
40%
11.8°
4
Windvlaag: -4.6 m/s
86%
09:00
15°
995.6 hPa
74%
11.6°
4
Windvlaag: -5.3 m/s
86%
10:00
15°
996.4 hPa 0.4 mm
81%
11.2°
4
Windvlaag: -6.1 m/s
85%
11:00
15°
997.3 hPa 0.7 mm
82%
13.0°
4
Windvlaag: -6 m/s
82%
12:00
15°
998.0 hPa 0.7 mm
80%
12.6°
4
Windvlaag: -5.4 m/s
86%
13:00
15°
998.6 hPa 1.3 mm
82%
12.1°
4
Windvlaag: -5.9 m/s
86%
14:00
15°
999.2 hPa 1.3 mm
82%
11.4°
4
Windvlaag: -5.9 m/s
85%
15:00
15°
999.7 hPa 1.1 mm
82%
10.9°
4
Windvlaag: -5.7 m/s
82%
16:00
15°
999.9 hPa 0.9 mm
82%
10.7°
4
Windvlaag: -5.7 m/s
77%
17:00
15°
1000.2 hPa 1.0 mm
82%
10.4°
4
Windvlaag: -5.6 m/s
84%
18:00
15°
1000.4 hPa 0.7 mm
80%
10.5°
3
Windvlaag: -5.5 m/s
84%
19:00
14°
1000.8 hPa 0.4 mm
80%
10.9°
3
Windvlaag: -4.5 m/s
77%
20:00
14°
1001.0 hPa
77%
11.5°
2
Windvlaag: -3.8 m/s
72%
21:00
13°
1001.5 hPa
62%
11.8°
2
Windvlaag: -3.6 m/s
57%
22:00
13°
1001.9 hPa
16%
11.6°
2
Windvlaag: -3.1 m/s
50%
23:00
13°
1002.2 hPa
14%
11.3°
2
Windvlaag: -1.8 m/s
33%
 05:08     21:45    Daglengte: 16:37 Morgen
00:00
13°
1002.6 hPa
14%
11.1°
2
Windvlaag: 0.4 m/s
27%
01:00
12°
1002.7 hPa
14%
10.3°
2
Windvlaag: 0.8 m/s
13%
02:00
12°
1002.8 hPa
14%
9.7°
2
Windvlaag: -1 m/s
10%
03:00
12°
1003.0 hPa
14%
8.8°
3
Windvlaag: -2.6 m/s
9%
04:00
12°
1003.6 hPa
14%
7.7°
3
Windvlaag: -2.6 m/s
10%
05:00
11°
1004.1 hPa
14%
6.6°
3
Windvlaag: -2.7 m/s
9%
06:00
11°
1004.5 hPa
14%
6.3°
3
Windvlaag: -2.6 m/s
19%
07:00
12°
1004.8 hPa
14%
6.9°
3
Windvlaag: -2.9 m/s
27%
08:00
13°
1005.1 hPa
14%
6.7°
3
Windvlaag: -3.1 m/s
22%
09:00
14°
1005.3 hPa
14%
5.7°
3
Windvlaag: -3.1 m/s
6%
10:00
15°
1005.5 hPa
14%
4.7°
3
Windvlaag: -3.1 m/s
3%
11:00
15°
1005.6 hPa
14%
4.2°
3
Windvlaag: -2.8 m/s
2%
12:00
16°
1005.6 hPa
14%
4.2°
3
Windvlaag: -3.4 m/s
11%
13:00
17°
1005.6 hPa
14%
4.3°
3
Windvlaag: -4.5 m/s
20%
14:00
17°
1005.5 hPa
15%
3.4°
3
Windvlaag: -4.6 m/s
46%
15:00
17°
1005.5 hPa
17%
3.6°
3
Windvlaag: -4.2 m/s
38%
16:00
17°
1005.5 hPa
71%
3.2°
2
Windvlaag: -3.3 m/s
45%
17:00
17°
1005.3 hPa
100%
2.6°
1
Windvlaag: -2.5 m/s
68%
18:00
17°
1005.4 hPa
100%
2.2°
1
Windvlaag: -1.8 m/s
60%
19:00
17°
1005.5 hPa
42%
2.4°
1
Windvlaag: -0.9 m/s
62%
20:00
16°
1005.7 hPa
98%
3.0°
1
Windvlaag: 1.9 m/s
71%
21:00
15°
1006.1 hPa 0.6 mm
100%
5.0°
1
Windvlaag: 1.6 m/s
78%
22:00
14°
1006.5 hPa 0.6 mm
100%
5.5°
1
Windvlaag: 1.3 m/s
78%
23:00
13°
1006.9 hPa 0.9 mm
100%
4.7°
1
Windvlaag: 0.4 m/s
64%
 05:10     21:42    Daglengte: 16:32 Dinsdag 03 Aug
00:00
13°
1007.3 hPa 0.9 mm
100%
5.8°
1
Windvlaag: 0.5 m/s
60%
01:00
12°
1007.4 hPa 0.8 mm
100%
5.4°
2
Windvlaag: 0.7 m/s
65%
02:00
12°
1007.5 hPa 0.7 mm
100%
4.8°
2
Windvlaag: 1.2 m/s
76%
03:00
12°
1007.8 hPa
100%
4.9°
2
Windvlaag: 1.4 m/s
83%
04:00
12°
1007.9 hPa
98%
4.9°
2
Windvlaag: 1 m/s
82%
05:00
11°
1008.1 hPa
94%
6.1°
1
Windvlaag: 0.4 m/s
81%
06:00
12°
1008.3 hPa
90%
5.4°
2
Windvlaag: -1.6 m/s
77%
07:00
13°
1008.6 hPa
82%
5.3°
2
Windvlaag: -1.1 m/s
75%
08:00
13°
1009.1 hPa
30%
5.6°
2
Windvlaag: -1 m/s
74%
09:00
14°
1009.5 hPa
90%
5.9°
2
Windvlaag: -1.7 m/s
82%
10:00
15°
1009.8 hPa
45%
5.9°
2
Windvlaag: -1.9 m/s
80%
11:00
15°
1010.0 hPa
41%
5.3°
2
Windvlaag: -2.1 m/s
81%
12:00
15°
1010.0 hPa 0.6 mm
36%
4.7°
2
Windvlaag: -1.9 m/s
74%
13:00
16°
1010.0 hPa
35%
4.3°
2
Windvlaag: -1.2 m/s
80%
14:00
16°
1009.8 hPa
37%
4.4°
2
Windvlaag: -0.6 m/s
73%
15:00
18°
1009.3 hPa
28%
5.1°
2
Windvlaag: 1.8 m/s
28%
16:00
18°
1009.3 hPa
27%
5.4°
2
Windvlaag: 1.9 m/s
20%
17:00
18°
1009.3 hPa
29%
5.3°
2
Windvlaag: 1.9 m/s
14%
18:00
18°
1009.3 hPa
22%
5.2°
2
Windvlaag: 1.9 m/s
14%
19:00
18°
1009.4 hPa
22%
7.1°
2
Windvlaag: 2 m/s
16%
20:00
17°
1009.7 hPa
21%
9.4°
2
Windvlaag: 2.1 m/s
15%
21:00
16°
1010.2 hPa
21%
10.4°
1
Windvlaag: 1.2 m/s
6%
22:00
15°
1010.7 hPa
21%
10.4°
1
Windvlaag: 2 m/s
6%
23:00
13°
1011.0 hPa
21%
10.2°
1
Windvlaag: 2.3 m/s
19%
 05:13     21:40    Daglengte: 16:27 Woensdag 04 Aug
00:00
13°
1011.4 hPa
24%
9.4°
1
Windvlaag: 2.9 m/s
2%
Temp/Neerslag /Baro Onweer/Dauwpunt
    Temp Baro Neerslag Dauwpunt Wind Bewolking  
 05:06     21:47    Daglengte: 16:41 Vandaag
02:00
15°
993.8 hPa   13.5°
2
86%
05:00
14°
994.0 hPa   12.9°
2
78%
08:00
15°
995.0 hPa   11.8°
4
86%
11:00
15°
997.3 hPa 1.1 mm 13.0°
4
82%
14:00
15°
999.2 hPa 3.3 mm 11.4°
4
85%
17:00
15°
1000.2 hPa 3.0 mm 10.4°
4
84%
20:00
14°
1001.0 hPa 1.1 mm 11.5°
2
72%
23:00
13°
1002.2 hPa   11.3°
2
33%
 05:08     21:45    Daglengte: 16:37 Morgen
02:00
12°
1002.8 hPa   9.7°
2
10%
05:00
11°
1004.1 hPa   6.6°
3
9%
08:00
13°
1005.1 hPa   6.7°
3
22%
11:00
15°
1005.6 hPa   4.2°
3
2%
14:00
17°
1005.5 hPa   3.4°
3
46%
17:00
17°
1005.3 hPa   2.6°
1
68%
20:00
16°
1005.7 hPa   3.0°
1
71%
23:00
13°
1006.9 hPa 2.1 mm 4.7°
1
64%
 05:10     21:42    Daglengte: 16:32 Dinsdag 03 Aug
02:00
12°
1007.5 hPa 2.4 mm 4.8°
2
76%
05:00
11°
1008.1 hPa   6.1°
1
81%
08:00
13°
1009.1 hPa   5.6°
2
74%
11:00
15°
1010.0 hPa   5.3°
2
81%
14:00
16°
1009.8 hPa 0.6 mm 4.4°
2
73%
17:00
18°
1009.3 hPa   5.3°
2
14%
20:00
17°
1009.7 hPa   9.4°
2
15%
23:00
13°
1011.0 hPa   10.2°
1
19%
 05:13     21:40    Daglengte: 16:27 Woensdag 04 Aug
02:00
12°
1011.8 hPa   8.6°
1
66%
05:00
Voelt als: 9.0°
1012.4 hPa 5.2 mm 8.0°
2
0%
08:00
14°
1012.6 hPa 5.2 mm 8.9°
1
0%
11:00
19°
1012.7 hPa 5.2 mm 8.8°
1
1%
14:00
22°
1012.1 hPa 5.2 mm 7.3°
2
1%
17:00
21°
1011.9 hPa 5.2 mm 7.2°
2
0%
20:00
19°
1012.0 hPa 5.2 mm 11.6°
1
1%
23:00
13°
1013.4 hPa 5.2 mm 11.1°
1
0%
 05:15     21:37    Daglengte: 16:22 Donderdag 05 Aug
02:00
11°
1013.5 hPa 5.2 mm 10.2°
0
0%
05:00
10°
1013.2 hPa 5.2 mm 9.9°
1
1%
08:00
15°
1013.4 hPa 5.2 mm 12.2°
1
1%
11:00
17°
1012.8 hPa 5.4 mm 11.9°
2
1%
14:00
21°
1011.6 hPa 5.5 mm 9.1°
3
1%
17:00
21°
1010.9 hPa 5.5 mm 7.9°
3
0%
20:00
19°
1010.6 hPa 5.5 mm 10.3°
1
0%
23:00
13°
1011.3 hPa 5.5 mm 9.2°
0
0%
 05:17     21:34    Daglengte: 16:17 Vrijdag 06 Aug
02:00
12°
1011.3 hPa 5.5 mm 8.9°
2
0%
05:00
11°
1011.4 hPa 5.5 mm 9.2°
2
0%
08:00
16°
1010.9 hPa 5.5 mm 10.9°
1
0%
11:00
20°
1010.0 hPa 5.5 mm 9.2°
4
0%
14:00
22°
1008.8 hPa 5.5 mm 7.5°
4
0%
17:00
22°
1007.5 hPa 5.5 mm 8.8°
2
1%
20:00
18°
1007.3 hPa 5.5 mm 10.1°
1
1%
23:00
17°
1008.0 hPa 5.5 mm 10.5°
2
1%
 05:20     21:32    Daglengte: 16:12 Zaterdag 07 Aug
02:00
16°
1008.2 hPa 5.5 mm 9.8°
2
1%
05:00
12°
1008.5 hPa 5.5 mm 9.4°
2
1%
08:00
15°
1007.9 hPa 5.5 mm 9.5°
3
1%
11:00
21°
1007.0 hPa 5.5 mm 9.2°
4
1%
14:00
20°
1005.9 hPa 5.7 mm 12.4°
5
1%
17:00
15°
1006.8 hPa 9.2 mm 14.3°
3
1%
20:00
14°
1006.9 hPa 17.3 mm 13.5°
4
1%
23:00
15°
1007.1 hPa   13.9°
3
1%
 05:22     21:29    Daglengte: 16:07 Zondag 08 Aug
02:00
14°
1007.0 hPa 43.2 mm 13.9°
2
1%
08:00
14°
1007.3 hPa 49.4 mm 14.3°
2
1%
14:00
17°
1008.6 hPa 52.0 mm 15.4°
1
1%
20:00
17°
1008.0 hPa 54.9 mm 15.7°
0
1%
 05:24     21:27    Daglengte: 16:03 Maandag 09 Aug
02:00
15°
1007.3 hPa 59.4 mm 14.8°
1
1%
08:00
16°
1007.1 hPa 82.4 mm 15.3°
1
1%
14:00
21°
1007.4 hPa 83.1 mm 11.8°
4
1%
20:00
17°
1009.2 hPa 87.2 mm 13.6°
2
1%
 05:27     21:24    Daglengte: 15:57 Dinsdag 10 Aug
02:00
13°
1011.5 hPa 87.6 mm 12.5°
1
1%
08:00
15°
1013.1 hPa 87.6 mm 13.2°
1
1%
14:00
23°
1013.3 hPa 87.7 mm 12.5°
1
1%
20:00
18°
1012.3 hPa 0.3 mm 13.9°
1
51%
 05:29     21:21    Daglengte: 15:52 Woensdag 11 Aug
02:00
14°
1013.5 hPa   12.1°
1
56%
08:00
15°
1013.8 hPa 0.7 mm 12.5°
1
62%
14:00
21°
1013.7 hPa 0.5 mm 13.5°
0
64%
20:00
18°
1013.6 hPa 0.7 mm 13.5°
1
59%
 05:31     21:18    Daglengte: 15:47 Donderdag 12 Aug
02:00
14°
1015.1 hPa 1.0 mm 11.6°
1
58%
08:00
15°
1015.5 hPa 0.3 mm 11.9°
1
54%
14:00
21°
1015.3 hPa 0.5 mm 13.1°
0
60%
20:00
19°
1015.2 hPa 0.7 mm 13.9°
1
52%
 05:34     21:16    Daglengte: 15:42 Vrijdag 13 Aug
02:00
14°
1016.4 hPa 0.2 mm 11.5°
1
50%
08:00
15°
1016.5 hPa 0.3 mm 12.0°
1
48%
14:00
22°
1015.7 hPa 0.8 mm 12.8°
1
47%
20:00
19°
1014.8 hPa 0.3 mm 13.9°
1
56%
 05:36     21:13    Daglengte: 15:37 Zaterdag 14 Aug
02:00
15°
1015.3 hPa 0.2 mm 12.4°
0
65%
08:00
16°
1014.6 hPa 0.5 mm 12.8°
0
68%
14:00
22°
1013.5 hPa 0.5 mm 13.5°
1
63%
20:00
19°
1012.5 hPa 0.5 mm 13.5°
1
58%
 05:38     21:10    Daglengte: 15:32 Zondag 15 Aug
02:00
14°
1012.8 hPa 0.3 mm 11.9°
1
52%
08:00
15°
1012.0 hPa 0.4 mm 12.1°
1
66%
14:00
21°
1011.2 hPa 0.3 mm 13.1°
0
71%
20:00
18°
1010.8 hPa 0.7 mm 13.3°
1
65%
  CAPE Lifted Index Hail Supercell Tornado SRH 3km CL BTM PRES CL TOP PRES Swiss DWD icon SMHI TS
 05:06     21:47    Daglengte: 16:41 Vandaag
01:00 31 J/kg -1.1 K 0 % 0 % 0 % 0 m²/s² 0 0 1.12 3
02:00 9 J/kg -0.8 K 0 % 0 % 0 % 0 m²/s² 0 0 1.42 3
03:00 0 J/kg -0.2 K 0 % 0 % 0 % 0 m²/s² 0 0 2.17 3
04:00 0 J/kg 0.6 K 0 % 0 % 0 % 0 m²/s² 0 0 3.33 3
05:00 0 J/kg 0.5 K 0 % 0 % 0 % 0 m²/s² 0 0 3.08 3
06:00 0 J/kg 0.4 K 0 % 0 % 0 % 0 m²/s² 0 0 3.04 3
07:00 39 J/kg 0.5 K 0 % 0 % 0 % 0 m²/s² 0 0 3.23 3
08:00 84 J/kg 0.3 K 0 % 0 % 0 % 0 m²/s² 0 0 3.6 3
09:00 169 J/kg 0.0 K 0 % 0 % 0 % 0 m²/s² 0 0 3.84 3
10:00 238 J/kg -0.3 K 0 % 0 % 0 % 0 m²/s² 0 0 4.08 80
11:00 250 J/kg -0.4 K 0 % 0 % 0 % 0 m²/s² 0 0 3.98 3
12:00 238 J/kg -0.5 K 0 % 0 % 0 % 0 m²/s² 0 0 3.88 3
13:00 139 J/kg 0.1 K 0 % 0 % 0 % 0 m²/s² 0 0 4.27 80
14:00 171 J/kg 0.0 K 0 % 0 % 0 % 0 m²/s² 0 0 3.96 80
15:00 104 J/kg 0.4 K 0 % 0 % 0 % 0 m²/s² 0 0 4.06 80
16:00 96 J/kg 0.2 K 0 % 0 % 0 % 0 m²/s² 0 0 3.5 61
17:00 105 J/kg 0.2 K 0 % 0 % 0 % 0 m²/s² 0 0 2.63 61
18:00 132 J/kg 0.4 K 0 % 0 % 0 % 0 m²/s² 0 0 2.47 61
19:00 137 J/kg 0.5 K 0 % 0 % 0 % 0 m²/s² 0 0 3.38 61
20:00 98 J/kg 0.2 K 0 % 0 % 0 % 0 m²/s² 0 0 1.85 61
21:00 88 J/kg 0.5 K 0 % 0 % 0 % 0 m²/s² 0 0 1.52 3
22:00 38 J/kg 1.0 K 0 % 0 % 0 % 0 m²/s² 0 0 3.37 3
23:00 0 J/kg 1.9 K 0 % 0 % 0 % 0 m²/s² 0 0 4.18 3
 05:08     21:45    Daglengte: 16:37 Morgen
00:00 0 J/kg 1.9 K 0 % 0 % 0 % 0 m²/s² 0 0 4.27 2
01:00 0 J/kg 2.3 K 0 % 0 % 0 % 0 m²/s² 0 0 4.13 2
02:00 0 J/kg 2.2 K 0 % 0 % 0 % 0 m²/s² 0 0 3.25 1
03:00 0 J/kg 2.6 K 0 % 0 % 0 % 0 m²/s² 0 0 2.9 1
04:00 0 J/kg 3.3 K 0 % 0 % 0 % 0 m²/s² 0 0 3.48 2
05:00 0 J/kg 4.4 K 0 % 0 % 0 % 0 m²/s² 0 0 4.91 1
06:00 0 J/kg 5.6 K 0 % 0 % 0 % 0 m²/s² 0 0 7.61 2
07:00 0 J/kg 6.7 K 0 % 0 % 0 % 0 m²/s² 0 0 9.82 2
08:00 0 J/kg 7.6 K 0 % 0 % 0 % 0 m²/s² 0 0 11.05 2
09:00 0 J/kg 8.2 K 0 % 0 % 0 % 0 m²/s² 0 0 11.74 2
10:00 0 J/kg 7.8 K 0 % 0 % 0 % 0 m²/s² 0 0 11.25 2
11:00 0 J/kg 7.3 K 0 % 0 % 0 % 0 m²/s² 0 0 11.14 1
12:00 0 J/kg 6.4 K 0 % 0 % 0 % 0 m²/s² 0 0 10.15 2
13:00 0 J/kg 5.6 K 0 % 0 % 0 % 0 m²/s² 0 0 9.05 2
14:00 1 J/kg 5.3 K 0 % 0 % 0 % 0 m²/s² 0 0 8.75 3
15:00 0 J/kg 5.2 K 0 % 0 % 0 % 0 m²/s² 0 0 8.65 3
16:00 0 J/kg 4.8 K 0 % 0 % 0 % 0 m²/s² 0 0 8.34 3
17:00 0 J/kg 4.6 K 0 % 0 % 0 % 0 m²/s² 0 0 7.84 3
18:00 0 J/kg 4.5 K 0 % 0 % 0 % 0 m²/s² 0 0 7.26 61
19:00 0 J/kg 4.2 K 0 % 0 % 0 % 0 m²/s² 0 0 6.33 3
20:00 0 J/kg 4.1 K 0 % 0 % 0 % 0 m²/s² 0 0 5.51 3
21:00 0 J/kg 4.0 K 0 % 0 % 0 % 0 m²/s² 0 0 5.47 61
22:00 0 J/kg 3.8 K 0 % 0 % 0 % 0 m²/s² 0 0 5.66 61
23:00 0 J/kg 3.0 K 0 % 0 % 0 % 0 m²/s² 0 0 5.4 61
 05:10     21:42    Daglengte: 16:32 Dinsdag 03 Aug
00:00 0 J/kg 3.0 K 0 % 0 % 0 % 0 m²/s² 0 0 5.31 61
01:00 0 J/kg 3.2 K 0 % 0 % 0 % 0 m²/s² 0 0 5.39 61
02:00 0 J/kg 3.2 K 0 % 0 % 0 % 0 m²/s² 0 0 5.45 61
03:00 0 J/kg 3.0 K 0 % 0 % 0 % 0 m²/s² 0 0 4.92 3
04:00 0 J/kg 3.3 K 0 % 0 % 0 % 0 m²/s² 0 0 4.86 3
05:00 0 J/kg 3.7 K 0 % 0 % 0 % 0 m²/s² 0 0 5.62 3
06:00 0 J/kg 3.9 K 0 % 0 % 0 % 0 m²/s² 0 0 5.64 3
07:00 0 J/kg 4.1 K 0 % 0 % 0 % 0 m²/s² 0 0 5.96 3
08:00 0 J/kg 4.3 K 0 % 0 % 0 % 0 m²/s² 0 0 6.16 3
09:00 0 J/kg 4.2 K 0 % 0 % 0 % 0 m²/s² 0 0 6.12 3
10:00 0 J/kg 3.9 K 0 % 0 % 0 % 0 m²/s² 0 0 5.82 2
11:00 0 J/kg 3.9 K 0 % 0 % 0 % 0 m²/s² 0 0 5.94 3
12:00 1 J/kg 3.2 K 0 % 0 % 0 % 0 m²/s² 0 0 5.12 2
13:00 2 J/kg 2.7 K 0 % 0 % 0 % 0 m²/s² 0 0 4.8 3
14:00 22 J/kg 2.1 K 0 % 0 % 0 % 0 m²/s² 0 0 4.35 3
15:00 49 J/kg 1.5 K 0 % 0 % 0 % 0 m²/s² 0 0 3.93 2
16:00 56 J/kg 1.2 K 0 % 0 % 0 % 0 m²/s² 0 0 4.17 2
17:00 88 J/kg 0.8 K 0 % 0 % 0 % 0 m²/s² 0 0 3.77 2
18:00 76 J/kg 0.6 K 0 % 0 % 0 % 0 m²/s² 0 0 2.28 2
19:00 84 J/kg 0.4 K 0 % 0 % 0 % 0 m²/s² 0 0 0.85 1
20:00 101 J/kg 0.6 K 0 % 0 % 0 % 0 m²/s² 0 0 0.84 1
21:00 123 J/kg 0.4 K 0 % 0 % 0 % 0 m²/s² 0 0 1.36 2
22:00 98 J/kg 0.3 K 0 % 0 % 0 % 0 m²/s² 0 0 2.4 1
23:00 14 J/kg 0.1 K 0 % 0 % 0 % 0 m²/s² 0 0 2.71 2
 05:13     21:40    Daglengte: 16:27 Woensdag 04 Aug
00:00 0 J/kg -0.1 K 0 % 0 % 0 % 0 m²/s² 0 0 2.36 2
Temp Baro Wind Neerslag
  EWN Forecast EWN WRFDA DWD ICON FMI HIRLAM MET Norway GFSWXSIM
 05:06     21:47    Daglengte: 16:41 Vandaag
02:00 14.5° 993.8 hPa 1.8 m/s 0.0 mm 13.2° 992.1 hPa 2.3 m/s 1.1 mm 14.4° 994.4 hPa 1.3 m/s -1.0 mm 14.7° 993.8 hPa 1.7 m/s 0.0 mm 12.9° 994.9 hPa 2.7 m/s
05:00 14.0° 994.0 hPa 2.1 m/s 0.0 mm 13.0° 991.8 hPa 3.0 m/s 1.7 mm 13.8° 995.1 hPa 1.0 m/s 0.0 mm 14.2° 994.0 hPa 2.1 m/s 0.0 mm 11.5° 995.2 hPa 2.8 m/s
08:00 14.6° 995.0 hPa 3.6 m/s 0.0 mm 15.7° 992.7 hPa 4.6 m/s 1.7 mm 14.4° 995.7 hPa 2.2 m/s 0.0 mm 15.6° 995.0 hPa 3.7 m/s 0.0 mm 12.0° 996.3 hPa 2.8 m/s
11:00 15.1° 997.3 hPa 4.3 m/s 1.1 mm 18.6° 994.1 hPa 5.3 m/s 1.8 mm 14.8° 998.3 hPa 3.5 m/s 0.8 mm 16.1° 997.3 hPa 4.3 m/s 0.0 mm 12.4° 997.9 hPa 2.8 m/s
14:00 14.8° 999.2 hPa 4.3 m/s 3.3 mm 19.4° 995.5 hPa 6.2 m/s 1.9 mm 15.1° 999.5 hPa 3.2 m/s 1.3 mm 14.7° 999.9 hPa 4.2 m/s 0.0 mm 12.8° 999.4 hPa 2.7 m/s
17:00 14.7° 1000.2 hPa 3.9 m/s 3.0 mm 19.3° 996.4 hPa 5.7 m/s 1.9 mm 14.6° 1000.7 hPa 2.1 m/s 2.2 mm 14.8° 1001.0 hPa 3.9 m/s 0.0 mm 13.3° 1000.6 hPa 2.7 m/s
20:00 13.8° 1001.0 hPa 2.3 m/s 1.1 mm 17.7° 997.2 hPa 4.8 m/s 2.1 mm 14.9° 1001.4 hPa 1.1 m/s 1.6 mm 13.4° 1001.9 hPa 1.9 m/s 0.0 mm 12.4° 1001.5 hPa 2.1 m/s
23:00 12.9° 1002.2 hPa 1.7 m/s 0.0 mm 15.3° 998.8 hPa 4.1 m/s 3.1 mm 13.3° 1002.5 hPa 1.5 m/s 0.0 mm 12.8° 1003.1 hPa 1.5 m/s 0.0 mm 12.1° 1002.6 hPa 1.7 m/s
 05:08     21:45    Daglengte: 16:37 Morgen
02:00 12.1° 1002.8 hPa 2.4 m/s 0.0 mm 14.4° 999.5 hPa 4.5 m/s 3.3 mm 11.9° 1003.5 hPa 2.1 m/s 0.0 mm 12.9° 1003.1 hPa 2.3 m/s 0.0 mm 9.7° 1003.7 hPa 2.1 m/s
05:00 11.0° 1004.1 hPa 3.1 m/s 0.0 mm 12.0° 1001.1 hPa 4.1 m/s 3.8 mm 10.8° 1004.4 hPa 1.7 m/s 0.0 mm 11.7° 1004.5 hPa 3.1 m/s 0.0 mm 7.7° 1005.2 hPa 2.3 m/s
08:00 12.8° 1005.1 hPa 3.0 m/s 0.0 mm 12.7° 1002.8 hPa 5.1 m/s 4.0 mm 13.7° 1005.6 hPa 1.2 m/s 0.0 mm 12.9° 1005.1 hPa 3.0 m/s 0.0 mm 11.9° 1006.1 hPa 1.3 m/s
11:00 15.5° 1005.6 hPa 2.6 m/s 0.0 mm 15.5° 1002.4 hPa 4.6 m/s 4.0 mm 15.4° 1006.0 hPa 2.1 m/s 0.0 mm 16.9° 1005.5 hPa 2.7 m/s 0.0 mm 13.9° 1006.4 hPa 1.1 m/s
14:00 17.0° 1005.5 hPa 3.1 m/s 0.0 mm 18.2° 1002.1 hPa 3.8 m/s 4.0 mm 16.7° 1005.8 hPa 1.4 m/s 0.0 mm 18.6° 1005.6 hPa 3.6 m/s 0.0 mm 18.3° 1005.8 hPa 0.1 m/s
17:00 17.1° 1005.3 hPa 1.3 m/s 0.0 mm 19.5° 1002.2 hPa 3.2 m/s 4.0 mm 15.8° 1006.2 hPa 0.7 m/s 0.1 mm 19.3° 1005.1 hPa 1.4 m/s
20:00 16.4° 1005.7 hPa 0.7 m/s 0.0 mm 19.2° 1002.5 hPa 0.7 m/s 4.0 mm 15.1° 1006.4 hPa 0.5 m/s 0.1 mm 16.7° 1005.4 hPa 1.6 m/s
23:00 13.3° 1006.9 hPa 0.6 m/s 2.1 mm 15.4° 1003.2 hPa 0.5 m/s 4.0 mm 13.1° 1007.6 hPa 0.2 m/s 1.1 mm 13.1° 1006.5 hPa 0.5 m/s
 05:10     21:42    Daglengte: 16:32 Dinsdag 03 Aug
02:00 12.1° 1007.5 hPa 1.8 m/s 2.4 mm 12.6° 1004.0 hPa 3.3 m/s 4.0 mm 12.1° 1007.9 hPa 1.0 m/s 1.6 mm 12.4° 1007.8 hPa 1.4 m/s
05:00 11.4° 1008.1 hPa 1.4 m/s 0.0 mm 10.0° 1005.0 hPa 2.7 m/s 4.0 mm 12.1° 1008.5 hPa 1.0 m/s 0.1 mm 11.4° 1008.8 hPa 1.3 m/s
08:00 13.4° 1009.1 hPa 1.8 m/s 0.0 mm 13.7° 1006.5 hPa 3.7 m/s 4.0 mm 13.6° 1009.3 hPa 0.5 m/s 0.0 mm 12.4° 1009.7 hPa 1.4 m/s
11:00 15.1° 1010.0 hPa 1.9 m/s 0.0 mm 16.9° 1006.8 hPa 2.7 m/s 4.0 mm 15.1° 1010.2 hPa 1.8 m/s 0.0 mm 14.9° 1010.2 hPa 1.8 m/s
14:00 16.4° 1009.8 hPa 1.6 m/s 0.6 mm 19.6° 1006.8 hPa 1.7 m/s 4.0 mm 16.5° 1009.9 hPa 2.0 m/s 0.0 mm 15.8° 1010.0 hPa 0.6 m/s
17:00 18.1° 1009.3 hPa 2.2 m/s 0.0 mm 20.6° 1006.4 hPa 1.7 m/s 4.0 mm 17.5° 1010.1 hPa 2.3 m/s 0.0 mm 12.7° 1010.4 hPa 0.4 m/s
20:00 16.9° 1009.7 hPa 1.9 m/s 0.0 mm 17.9° 1007.0 hPa 1.8 m/s 4.1 mm 16.6° 1010.3 hPa 1.9 m/s 0.0 mm 15.9° 1009.8 hPa 0.2 m/s
23:00 13.4° 1011.0 hPa 1.2 m/s 0.0 mm 13.3° 1008.2 hPa 2.3 m/s 4.2 mm 13.4° 1011.7 hPa 0.9 m/s 0.0 mm 11.2° 1011.1 hPa 1.0 m/s
 05:13     21:40    Daglengte: 16:27 Woensdag 04 Aug
02:00 12.5° 1011.8 hPa 0.6 m/s 0.0 mm 13.9° 1009.2 hPa 2.4 m/s 4.2 mm 12.1° 1012.5 hPa 0.1 m/s 0.0 mm 10.2° 1011.8 hPa 1.4 m/s
05:00 9.4° 1012.4 hPa 1.5 m/s 5.2 mm 9.4° 1012.4 hPa 1.5 m/s 5.2 mm
08:00 14.3° 1012.6 hPa 1.0 m/s 5.2 mm 14.3° 1012.6 hPa 1.0 m/s 5.2 mm
11:00 19.4° 1012.7 hPa 0.7 m/s 5.2 mm 19.4° 1012.7 hPa 0.7 m/s 5.2 mm
14:00 22.4° 1012.1 hPa 2.0 m/s 5.2 mm 22.4° 1012.1 hPa 2.0 m/s 5.2 mm
17:00 21.0° 1011.9 hPa 2.2 m/s 5.2 mm 21.0° 1011.9 hPa 2.2 m/s 5.2 mm
20:00 18.9° 1012.0 hPa 1.4 m/s 5.2 mm 18.9° 1012.0 hPa 1.4 m/s 5.2 mm
23:00 12.9° 1013.4 hPa 1.3 m/s 5.2 mm 12.9° 1013.4 hPa 1.3 m/s 5.2 mm
 05:15     21:37    Daglengte: 16:22 Donderdag 05 Aug
02:00 11.3° 1013.5 hPa 0.4 m/s 5.2 mm 11.3° 1013.5 hPa 0.4 m/s 5.2 mm
05:00 10.5° 1013.2 hPa 0.5 m/s 5.2 mm 10.5° 1013.2 hPa 0.5 m/s 5.2 mm
08:00 14.5° 1013.4 hPa 0.5 m/s 5.2 mm 14.5° 1013.4 hPa 0.5 m/s 5.2 mm
11:00 17.4° 1012.8 hPa 2.0 m/s 5.4 mm 17.4° 1012.8 hPa 2.0 m/s 5.4 mm
14:00 21.1° 1011.6 hPa 3.0 m/s 5.5 mm 21.1° 1011.6 hPa 3.0 m/s 5.5 mm
17:00 21.4° 1010.9 hPa 3.1 m/s 5.5 mm 21.4° 1010.9 hPa 3.1 m/s 5.5 mm
20:00 18.6° 1010.6 hPa 1.5 m/s 5.5 mm 18.6° 1010.6 hPa 1.5 m/s 5.5 mm
23:00 12.8° 1011.3 hPa 0.2 m/s 5.5 mm 12.8° 1011.3 hPa 0.2 m/s 5.5 mm
 05:17     21:34    Daglengte: 16:17 Vrijdag 06 Aug
02:00 12.0° 1011.3 hPa 1.5 m/s 5.5 mm 12.0° 1011.3 hPa 1.5 m/s 5.5 mm
05:00 11.1° 1011.4 hPa 1.8 m/s 5.5 mm 11.1° 1011.4 hPa 1.8 m/s 5.5 mm
08:00 15.7° 1010.9 hPa 1.3 m/s 5.5 mm 15.7° 1010.9 hPa 1.3 m/s 5.5 mm
11:00 20.0° 1010.0 hPa 3.7 m/s 5.5 mm 20.0° 1010.0 hPa 3.7 m/s 5.5 mm
14:00 22.2° 1008.8 hPa 4.3 m/s 5.5 mm 22.2° 1008.8 hPa 4.3 m/s 5.5 mm
17:00 21.6° 1007.5 hPa 2.0 m/s 5.5 mm 21.6° 1007.5 hPa 2.0 m/s 5.5 mm
20:00 18.1° 1007.3 hPa 0.9 m/s 5.5 mm 18.1° 1007.3 hPa 0.9 m/s 5.5 mm
23:00 17.0° 1008.0 hPa 1.7 m/s 5.5 mm 17.0° 1008.0 hPa 1.7 m/s 5.5 mm
 05:20     21:32    Daglengte: 16:12 Zaterdag 07 Aug
02:00 15.8° 1008.2 hPa 1.8 m/s 5.5 mm 15.8° 1008.2 hPa 1.8 m/s 5.5 mm
05:00 12.1° 1008.5 hPa 2.3 m/s 5.5 mm 12.1° 1008.5 hPa 2.3 m/s 5.5 mm
08:00 15.3° 1007.9 hPa 2.9 m/s 5.5 mm 15.3° 1007.9 hPa 2.9 m/s 5.5 mm
11:00 20.6° 1007.0 hPa 4.0 m/s 5.5 mm 20.6° 1007.0 hPa 4.0 m/s 5.5 mm
14:00 19.5° 1005.9 hPa 4.7 m/s 5.7 mm 19.5° 1005.9 hPa 4.7 m/s 5.7 mm
17:00 15.1° 1006.8 hPa 2.7 m/s 9.2 mm 15.1° 1006.8 hPa 2.7 m/s 9.2 mm
20:00 14.2° 1006.9 hPa 4.1 m/s 17.3 mm 14.2° 1006.9 hPa 4.1 m/s 17.3 mm
23:00 14.5° 1007.1 hPa 2.8 m/s 20.7 mm 14.5° 1007.1 hPa 2.8 m/s 20.7 mm
 05:22     21:29    Daglengte: 16:07 Zondag 08 Aug
02:00 14.4° 1007.0 hPa 2.5 m/s 22.6 mm 14.4° 1007.0 hPa 2.5 m/s 22.6 mm
08:00 14.4° 1007.3 hPa 1.6 m/s 25.3 mm 14.4° 1007.3 hPa 1.6 m/s 25.3 mm
14:00 16.8° 1008.6 hPa 1.4 m/s 26.1 mm 16.8° 1008.6 hPa 1.4 m/s 26.1 mm
20:00 17.0° 1008.0 hPa 0.2 m/s 28.3 mm 17.0° 1008.0 hPa 0.2 m/s 28.3 mm
 05:24     21:27    Daglengte: 16:03 Maandag 09 Aug
02:00 15.0° 1007.3 hPa 1.1 m/s 30.2 mm 15.0° 1007.3 hPa 1.1 m/s 30.2 mm
08:00 15.9° 1007.1 hPa 1.0 m/s 41.3 mm 15.9° 1007.1 hPa 1.0 m/s 41.3 mm
14:00 21.1° 1007.4 hPa 3.6 m/s 41.6 mm 21.1° 1007.4 hPa 3.6 m/s 41.6 mm
20:00 17.3° 1009.2 hPa 2.0 m/s 43.8 mm 17.3° 1009.2 hPa 2.0 m/s 43.8 mm
 05:27     21:24    Daglengte: 15:57 Dinsdag 10 Aug
02:00 12.9° 1011.5 hPa 0.6 m/s 43.8 mm 12.9° 1011.5 hPa 0.6 m/s 43.8 mm
08:00 14.7° 1013.1 hPa 1.2 m/s 43.8 mm 14.7° 1013.1 hPa 1.2 m/s 43.8 mm
14:00 22.5° 1013.3 hPa 0.5 m/s 43.9 mm 22.5° 1013.3 hPa 0.5 m/s 43.9 mm
20:00 18.4° 1012.3 hPa 1.2 m/s 0.3 mm
 05:29     21:21    Daglengte: 15:52 Woensdag 11 Aug
02:00 13.5° 1013.5 hPa 0.6 m/s 0.0 mm
08:00 15.0° 1013.8 hPa 1.0 m/s 0.7 mm
14:00 20.7° 1013.7 hPa 0.4 m/s 0.5 mm
20:00 18.4° 1013.6 hPa 0.6 m/s 0.7 mm
 05:31     21:18    Daglengte: 15:47 Donderdag 12 Aug
02:00 13.7° 1015.1 hPa 0.7 m/s 1.0 mm
08:00 15.3° 1015.5 hPa 1.2 m/s 0.3 mm
14:00 21.4° 1015.3 hPa 0.3 m/s 0.5 mm
20:00 19.2° 1015.2 hPa 0.6 m/s 0.7 mm
 05:34     21:16    Daglengte: 15:42 Vrijdag 13 Aug
02:00 13.8° 1016.4 hPa 0.7 m/s 0.2 mm
08:00 15.4° 1016.5 hPa 1.0 m/s 0.3 mm
14:00 22.5° 1015.7 hPa 1.1 m/s 0.8 mm
20:00 19.4° 1014.8 hPa 1.2 m/s 0.3 mm
 05:36     21:13    Daglengte: 15:37 Zaterdag 14 Aug
02:00 14.5° 1015.3 hPa 0.3 m/s 0.2 mm
08:00 15.8° 1014.6 hPa 0.3 m/s 0.5 mm
14:00 21.8° 1013.5 hPa 1.1 m/s 0.5 mm
20:00 19.0° 1012.5 hPa 1.3 m/s 0.5 mm
 05:38     21:10    Daglengte: 15:32 Zondag 15 Aug
02:00 14.2° 1012.8 hPa 0.7 m/s 0.3 mm
08:00 15.5° 1012.0 hPa 0.6 m/s 0.4 mm
14:00 20.8° 1011.2 hPa 0.4 m/s 0.3 mm
20:00 18.4° 1010.8 hPa 0.5 m/s 0.7 mm
FMI Hirlam - 7.5 km EWN WRFDA - 12 km DWD ICON - 7 km GFS - 25 km Basiskaart






























































Updatetijd (Europe/Amsterdam) Resolutie Lengte Stap
FMI Hirlam 19:00, 01:00, 07:00, 13:00 7.5 km 49h 1h
EWN WRFDA 22:15, 04:15, 10:15, 16:15 12 km 73h 1h
DWD ICON 23:45, 05:45, 11:45, 17:45 7 km 75h 1h
GFS 20:15, 02:15, 08:15, 14:15 25 km 237h 3h
30+ mm
25-30 mm
20-25 mm
15-20 mm
10-15 mm
6-10 mm
4-6 mm
2-4 mm
1-2 mm
0.5-1 mm
0.2-0.5 mm
0.1-0.2 mm
30+ mm
25-30 mm
20-25 mm
15-20 mm
10-15 mm
6-10 mm
4-6 mm
2-4 mm
1-2 mm
0.5-1 mm
0.2-0.5 mm
0.1-0.2 mm
Sneeuwval
Natte sneeuw
Hagel
Vorst
30+ mm
25-30 mm
20-25 mm
15-20 mm
10-15 mm
6-10 mm
4-6 mm
2-4 mm
1-2 mm
0.5-1 mm
0.2-0.5 mm
0.1-0.2 mm
Sneeuwval
Natte sneeuw
Hagel
Vorst
Onweer
50 mm
40 mm
30 mm
26 mm
22 mm
18 mm
14 mm
10 mm
9 mm
8 mm
7 mm
6 mm
5 mm
4.5 mm
4 mm
3.5 mm
3 mm
2.5 mm
2 mm
1.5 mm
1 mm
0.8 mm
0.6 mm
0.4 mm
0.2 mm
0.05 mm
35°
30°
25°
20°
15°
10°
-5°
-10°
-15°
-20°
-25°
-30°
-35°
33> m/s
29 m/s
25 m/s
21 m/s
17 m/s
14 m/s
11 m/s
8 m/s
5 m/s
3 m/s
0 m/s
2600 J/kg
2400 J/kg
2200 J/kg
2000 J/kg
1800 J/kg
1600 J/kg
1400 J/kg
1200 J/kg
1000 J/kg
800 J/kg
600 J/kg
400 J/kg
200 J/kg
70 dBZ
65 dBZ
60 dBZ
55 dBZ
50 dBZ
45 dBZ
40 dBZ
35 dBZ
30 dBZ
25 dBZ
20 dBZ
15 dBZ
10 dBZ
5 dBZ
-1 K
-2 K
-3 K
-4 K
-5 K
-6 K
-7 K
-8 K
-9 K
950 m²/s²
900 m²/s²
850 m²/s²
800 m²/s²
750 m²/s²
700 m²/s²
650 m²/s²
600 m²/s²
550 m²/s²
500 m²/s²
450 m²/s²
400 m²/s²
350 m²/s²
300 m²/s²
250 m²/s²
200 m²/s²
150 m²/s²
100 m²/s²
46 m/s
44 m/s
42 m/s
40 m/s
38 m/s
36 m/s
34 m/s
32 m/s
30 m/s
28 m/s
26 m/s
24 m/s
22 m/s
20 m/s
16 m/s
12 m/s
8 m/s
4 m/s
30 m/s
28 m/s
26 m/s
24 m/s